YAOGAN-34 (48340 NORAD) Tracking and Keplerian Element Data

This shows tracking and keplerian element data for the satellite.

Feedback or suggestion? Click here.




ElementValue
Catalog48340
NameYAOGAN-34
Epoch Orbit705
Epoch Day172.76392238
Epoch Year2021
RAAN143.4686
Inclination63.4065
Eccentricity0.0012829
Argument of Perigee331.7752
Mean Anonmoly28.2577
Mean Motion13.45224542
Decay Rate-7E-07
L11 48340U 21037A 21172.76392238 -.00000070 00000-0 33640-4 0 9993
L22 48340 63.4065 143.4686 0012829 331.7752 28.2577 13.45224542 7052

Live tracking and technical data element details for YAOGAN-34 (NORAD 48340). YAOGAN-34 can be tracked NOW for your location showing map with azimuth and elevation plus other details from your city location.

Track the satellite on the map from your city or location and see movement details for azimuth, elevation, latitude, longitude, range, height, and movement on the map or in text.







IsCatalogInMostPopularTable: catalog: 48340, numindb: 21
Update: records affected: 1



GetName: 48340 YAOGAN-34

Hit Count: updated at: Thu, 24 Jun 2021 03:55:17 GMT